Hourly Data Report for September 02, 2017

All times are specified in Local Standard Time (LST). Add 1 hour to adjust for Daylight Saving Time where and when it is observed.

MIRAMICHI RCS
NEW BRUNSWICK

47°00'34.000" N
65°27'54.000" W
33.00 m
8100989
71744
ACQ

Download Data

Hourly Data (September 2017)
Hourly Data Report for September 2, 2017
Temp Definition
°C
Dew Point Temp Definition
°C
Rel Hum Definition
%
Wind Dir Definition
10's deg

Wind Spd Definition
km/h
Visibility Definition
km
Stn Press Definition
kPa
Hmdx Definition


Wind Chill Definition


Weather Definition


TIME
00:00 9.5 6.2 80 29 11   100.64     LegendNANA
01:00 8.6 5.8 83 27 12   100.73     LegendNANA
02:00 8.2 5.4 83 28 8   100.79     LegendNANA
03:00 8.2 4.6 78 31 13   100.87     LegendNANA
04:00 7.8 4.5 80 29 11   100.93     LegendNANA
05:00 7.7 4.6 81 28 15   100.98     LegendNANA
06:00 7.0 4.7 85 27 9   101.04     LegendNANA
07:00 8.4 5.4 81 27 8   101.14     LegendNANA
08:00 10.2 5.4 72 30 16   101.23     LegendNANA
09:00 11.6 4.9 63 30 13   101.29     LegendNANA
10:00 13.0 5.0 58 33 11   101.32     LegendNANA
11:00 14.2 5.8 57 29 14   101.34     LegendNANA
12:00 15.6 5.8 52 33 8   101.31     LegendNANA
13:00 17.1 6.1 48 34 8   101.33     LegendNANA
14:00 18.9 6.2 43 30 10   101.31     LegendNANA
15:00 19.2 6.8 44 35 7   101.37     LegendNANA
16:00 20.1 7.3 44 35 7   101.40     LegendNANA
17:00 20.2 7.2 43 34 7   101.44     LegendNANA
18:00 19.9 7.7 45 31 5   101.49     LegendNANA
19:00 17.3 8.4 56 35 3   101.56     LegendNANA
20:00 13.6 8.9 73   0   101.66     LegendNANA
21:00 12.0 8.4 79   0   101.72     LegendNANA
22:00 10.3 7.9 85 25 3   101.77     LegendNANA
23:00 9.4 7.5 88 29 4   101.78     LegendNANA

Notes on Data Quality.

Legend

  • E = Estimated
  • M = Missing
  • NA = Not Available
  • ‡ = Partner data that is not subject to review by the National Climate Archives
Date modified: